New Century, KS

3:50 PM CST on January 17, 2017 (GMT -0600)
New Century Aircenter

Weather History for KIXD - March, 2013

Change the Weather History Date:

Tuesday, March 12, 2013

  Actual Average Record
Temperature  
Mean Temperature 37 °F -  
Max Temperature 46 °F 49 °F 75 °F (2008)
Min Temperature 28 °F 28 °F -4 °F (1998)
Degree Days  
Heating Degree Days 28    
Moisture  
Dew Point 23 °F    
Average Humidity 60    
Maximum Humidity 82    
Minimum Humidity 37    
Precipitation  
Precipitation 0.00 in - - ()
Sea Level Pressure  
Sea Level Pressure 30.20 in    
Wind  
Wind Speed 10 mph (WNW)    
Max Wind Speed 28 mph    
Max Gust Speed 38 mph    
Visibility 10 miles    
Events      
Averages and records for this station are not official NWS values.
T = Trace of Precipitation, MM = Missing Value Source: NWS Daily Summary

Daily Weather History Graph

Daily Weather History Graph

Search for Another Location

Airport or City:

Trip Planner

Search our weather history database for the weather conditions in past years. The results will help you decide how hot, cold, wet, or windy it might be!

Date:

Astronomy

Mar. 12, 2013 Rise Set
Actual Time 7:35 AM CDT 7:23 PM CDT
Civil Twilight 7:08 AM CDT 7:50 PM CDT
Nautical Twilight 6:37 AM CDT 8:21 PM CDT
Astronomical Twilight 6:06 AM CDT 8:52 PM CDT
Moon 7:43 AM CDT (3/12) 8:38 PM CDT (3/12)
Length of Visible Light 12h 41m
Length of Day
11h 48m
New Moon, 1% of the Moon is Illuminated
Mar 12
New Moon
Mar 19
First Quarter
Mar 27
Full
Apr 2
Last Quarter
Apr 10
New

Hourly Weather History & Observations

Time (CDT) Temp. Windchill Dew Point Humidity Pressure Visibility Wind Dir Wind Speed Gust Speed Precip Events Conditions
12:53 AM 32.0 °F 27.5 °F 19.0 °F 59% 30.05 in 10.0 mi WSW 4.6 mph - N/A   Clear
1:53 AM 33.1 °F 28.7 °F 19.9 °F 59% 30.05 in 10.0 mi West 4.6 mph - N/A   Clear
2:53 AM 33.1 °F 26.9 °F 21.0 °F 61% 30.06 in 10.0 mi WNW 6.9 mph - N/A   Clear
3:53 AM 33.1 °F 25.5 °F 21.9 °F 64% 30.07 in 10.0 mi WNW 9.2 mph - N/A   Clear
4:53 AM 30.9 °F 23.5 °F 23.0 °F 72% 30.09 in 10.0 mi WNW 8.1 mph - N/A   Clear
5:53 AM 30.0 °F 24.1 °F 23.0 °F 75% 30.13 in 10.0 mi NW 5.8 mph - N/A   Clear
6:53 AM 30.0 °F 26.5 °F 23.0 °F 75% 30.15 in 10.0 mi WNW 3.5 mph - N/A   Clear
7:53 AM 28.9 °F 23.9 °F 24.1 °F 82% 30.17 in 10.0 mi West 4.6 mph - N/A   Clear
8:53 AM 32.0 °F 26.4 °F 25.0 °F 75% 30.19 in 10.0 mi West 5.8 mph - N/A   Clear
9:53 AM 36.0 °F 29.6 °F 26.1 °F 67% 30.22 in 10.0 mi West 8.1 mph - N/A   Scattered Clouds
10:53 AM 39.9 °F 31.4 °F 28.0 °F 63% 30.23 in 10.0 mi West 16.1 mph 21.9 mph N/A   Mostly Cloudy
11:53 AM 44.1 °F 36.5 °F 28.0 °F 53% 30.22 in 10.0 mi West 17.3 mph 21.9 mph N/A   Partly Cloudy
12:53 PM 44.1 °F 36.5 °F 24.1 °F 45% 30.22 in 10.0 mi WNW 17.3 mph 29.9 mph N/A   Overcast
1:53 PM 46.0 °F 39.0 °F 23.0 °F 40% 30.22 in 10.0 mi WNW 17.3 mph 31.1 mph N/A   Clear
2:53 PM 46.0 °F 37.0 °F 21.9 °F 39% 30.20 in 10.0 mi NW 27.6 mph 38.0 mph N/A   Scattered Clouds
3:53 PM 44.1 °F 36.2 °F 19.0 °F 37% 30.21 in 10.0 mi NW 18.4 mph 28.8 mph N/A   Overcast
4:53 PM 42.1 °F 32.3 °F 24.1 °F 49% 30.24 in 10.0 mi NNW 24.2 mph 32.2 mph N/A   Overcast
5:53 PM 42.1 °F 32.8 °F 21.0 °F 43% 30.25 in 10.0 mi WNW 21.9 mph 28.8 mph N/A   Scattered Clouds
6:53 PM 39.0 °F 31.0 °F 19.9 °F 46% 30.27 in 10.0 mi NW 13.8 mph 21.9 mph N/A   Mostly Cloudy
7:53 PM 36.0 °F 27.5 °F 21.9 °F 57% 30.30 in 10.0 mi NNW 12.7 mph - N/A   Partly Cloudy
8:53 PM 32.0 °F 25.6 °F 21.9 °F 66% 30.32 in 10.0 mi NNW 6.9 mph - N/A   Clear
9:53 PM 28.0 °F 20.8 °F 21.0 °F 75% 30.33 in 10.0 mi NNW 6.9 mph - N/A   Clear
10:53 PM 30.0 °F 22.4 °F 21.0 °F 69% 30.35 in 10.0 mi NNW 8.1 mph - N/A   Clear
11:53 PM 30.0 °F 19.5 °F 21.0 °F 69% 30.36 in 10.0 mi NNW 13.8 mph - N/A   Clear